Helicity
195 181 170 140 124 136 131 157 170 116 138 146 145 133 130 99 84 77 62 74 62 66 59 56 45 56 57
196 183 161 150 156 158 155 150 180 148 126 130 127 112 91 83 80 73 86 79 77 79 66 46 44 51 49
175 173 174 175 174 166 167 182 195 132 109 112 94 97 90 82 72 68 61 60 62 63 55 39 33 33 49
182 193 196 164 180 169 198 183 183 153 110 70 56 65 71 69 57 48 43 49 61 67 65 57 41 38 44
185 210 183 159 178 187 197 188 149 115 135 97 125 153 157 88 75 52 52 56 54 60 67 58 42 37 28
224 188 181 188 181 175 185 158 115 78 137 128 110 127 151 127 45 24 34 43 50 53 58 55 57 54 49
189 177 190 159 165 160 135 133 147 140 118 126 115 134 138 104 35 38 42 35 43 55 57 63 71 65 53
186 170 158 127 110 112 114 132 154 145 115 149 111 143 104 116 60 18 11 25 47 54 71 81 61 37 19
83 59 47 40 62 121 133 136 136 133 124 112 132 102 100 92 24 -16 5 37 61 60 69 75 62 37 38
99 60 62 78 53 115 145 153 141 122 107 135 131 81 22 81 76 142 117 68 37 39 48 39 32 56 38
70 83 90 99 107 121 137 164 172 230 187 136 189 142 162 149 144 149 139 123 146 132 62 -14 -12 -2 -1
76 91 105 112 117 129 136 159 197 207 163 149 207 165 139 65 19 82 141 179 175 141 124 34 -8 14 21
85 109 123 137 136 143 154 161 173 177 171 136 127 86 90 100 107 139 55 154 154 80 50 47 32 128 17
102 111 124 137 141 148 163 151 157 167 160 137 112 118 125 146 144 173 143 159 170 102 35 10 -14 -29 -44
106 115 130 137 153 150 175 176 206 194 175 137 129 159 189 145 136 183 171 127 122 94 37 59 48 36 10
117 134 144 141 151 157 166 188 192 194 188 184 161 127 119 150 196 201 219 197 178 143 116 83 83 48 33
134 148 149 166 128 179 177 185 203 206 224 229 220 213 189 223 224 164 182 258 177 131 114 78 55 71 19
Wind_Speed
73 74 79 84 84 82 84 87 85 89 91 90 89 88 89 89 88 86 83 81 78 79 80 83 83 86 88
80 81 81 81 84 88 90 86 87 87 90 89 89 89 87 84 80 76 74 77 82 84 86 84 84 88 87
88 81 82 82 89 88 88 87 85 88 88 86 86 84 80 76 75 78 87 85 83 82 81 81 84 86 84
88 90 88 87 88 97 99 91 90 84 84 82 79 74 73 78 82 82 80 77 75 76 76 75 75 80 86
91 93 94 95 99 97 98 96 89 82 83 75 72 72 73 74 75 78 77 74 74 76 75 71 72 74 81
91 94 96 97 97 95 95 98 99 72 74 79 73 75 78 73 73 76 78 79 79 77 75 72 71 73 79
93 94 97 94 93 92 88 84 82 79 79 81 79 82 78 74 77 81 82 81 79 76 74 71 69 72 79
80 84 81 79 79 82 82 80 75 73 74 89 85 86 84 78 80 82 77 73 75 73 71 72 75 80 81
75 76 77 78 75 76 76 79 86 84 79 84 84 91 90 86 72 69 69 70 76 77 77 74 84 84 83
76 75 68 68 67 64 68 78 85 93 73 81 89 86 90 73 68 74 78 74 76 72 65 93 93 84 82
73 68 66 65 65 65 65 67 72 72 72 75 78 80 74 85 79 79 80 79 69 62 45 44 84 85 83
66 66 66 68 68 65 60 56 52 52 55 53 50 48 43 57 89 86 78 69 56 48 38 25 70 77 82
63 63 63 61 55 51 50 47 44 39 33 27 25 31 32 43 56 63 64 73 56 30 22 19 26 48 83
59 59 55 51 44 44 43 43 42 37 30 21 20 23 31 33 38 51 47 27 43 25 43 48 53 51 64
56 50 46 46 42 43 41 38 37 35 33 29 24 21 23 34 36 34 35 37 40 42 46 48 46 47 57
47 45 44 38 41 41 39 39 36 33 31 30 28 26 24 20 21 29 33 31 32 30 27 37 43 57 65
43 40 37 40 39 40 39 40 40 38 35 32 29 28 27 29 26 17 30 32 31 32 30 41 60 62 49
Wind_Direction
321 324 323 323 324 324 324 323 321 319 317 316 315 314 313 312 311 311 310 309 308 307 305 303 300 298 296
321 323 322 324 323 323 323 323 321 320 318 317 315 314 313 313 312 312 311 309 306 304 302 301 299 297 296
320 323 324 325 324 324 323 323 322 320 319 318 316 315 315 314 313 311 307 306 306 305 304 302 300 298 296
321 322 323 325 324 323 323 324 323 323 320 318 318 317 317 314 311 309 309 309 308 307 306 305 303 300 295
322 322 323 324 324 324 322 323 323 324 322 321 321 319 317 316 314 312 311 310 309 308 307 306 304 301 296
323 323 323 324 324 324 323 324 323 328 327 321 322 319 317 317 316 314 311 309 308 308 308 306 305 303 297
323 323 323 325 325 324 324 324 323 325 324 320 320 317 318 317 316 313 310 309 308 308 308 307 306 303 296
326 325 326 328 327 327 326 325 325 325 325 318 319 316 316 316 316 314 312 311 311 309 309 308 305 299 294
330 330 330 330 331 331 330 328 325 325 324 319 320 318 316 315 317 318 316 314 311 309 309 308 298 294 289
334 334 337 337 337 337 334 329 327 327 332 324 321 322 319 320 320 319 316 315 313 312 312 292 285 288 281
338 340 342 343 342 341 338 334 331 327 327 327 325 322 321 319 319 318 316 314 316 317 314 257 267 269 270
343 345 345 345 345 344 343 340 335 327 329 330 327 325 316 290 283 307 318 321 323 320 319 267 256 259 264
347 348 348 348 349 350 350 348 343 335 330 316 297 279 275 271 271 274 275 323 327 316 294 286 253 307 272
351 351 354 356 355 355 352 351 349 344 344 320 298 285 278 274 272 272 272 284 327 283 257 251 248 241 243
355 358 359 359 357 357 354 350 349 342 337 339 338 316 293 274 277 276 271 268 263 259 257 255 249 242 240
2 2 0 357 355 355 357 355 349 344 339 335 330 324 319 296 263 273 276 274 273 267 260 256 254 251 249
5 4 1 359 354 355 356 357 355 353 348 344 344 347 331 314 329 300 274 282 281 275 268 257 258 257 249